Location: Crescent
(42.8242°N, 73.7329°W)
Time: 07:15:10
(UTC+00:00)

Transit 4A - Pass Details

Date: 22 February 2026
Orbit: 864 x 977 km, 66.8° (Epoch: 9 March)

Event Time Altitude Azimuth Distance (km) Brightness Sun altitude
Rises 09:41:15 0° 265° (W) 3,480 - -22.8°
Reaches altitude 10° 09:44:41 10° 285° (WNW) 2,564 - -22.2°
Exits shadow 09:48:24 17° 324° (NW) 2,131 9.5 -21.5°
Maximum altitude 09:48:27 17° 325° (NW) 2,131 9.5 -21.5°
Drops below altitude 10° 09:52:17 10° 4° (N) 2,619 10.4 -20.8°
Sets 09:55:52 0° 25° (NNE) 3,590 11.4 -20.1°
